FW0772 Weather Reports


time (UTC)temp
F
wind
direction
speed
knots
gust
knots
rain 1hr
in
rain 24hr
in
rain mn
in
humidity
%
barometer
mb
20230128011524 33 0 0.0 0.0 0.00 0.02 0.00 76 1027.8
20230128010023 34 0 0.0 1.7 0.00 0.02 0.00 76 1027.8
20230128004528 34 360 0.0 2.6 0.00 0.03 0.00 75 1027.8
20230128003030 34 53 0.0 1.7 0.00 0.03 0.00 74 1027.9
20230128001525 34 0 0.0 3.5 0.00 0.03 0.00 74 1027.8
20230128000026 35 0 0.9 6.1 0.00 0.03 0.00 73 1027.8
20230127234528 34 108 1.7 3.5 0.00 0.03 0.00 74 1027.9
20230127233027 35 84 0.9 4.3 0.00 0.03 0.00 74 1027.7
20230127231521 35 0 0.9 3.5 0.00 0.03 0.00 74 1027.8
20230127230022 35 0 0.0 2.6 0.00 0.03 0.00 74 1027.7
20230127224523 35 96 0.9 3.5 0.00 0.03 0.03 74 1027.8
20230127223027 35 0 0.0 1.7 0.00 0.03 0.03 74 1027.9
20230127221523 35 57 0.0 2.6 0.00 0.03 0.03 74 1028.1
20230127220021 35 59 0.9 3.5 0.00 0.03 0.03 74 1028.1
20230127214527 35 54 0.0 2.6 0.00 0.03 0.03 74 1028.1
20230127213023 35 78 0.0 2.6 0.00 0.03 0.03 74 1028.1
20230127211527 35 141 0.9 3.5 0.00 0.03 0.03 74 1028.2
20230127210022 35 77 0.0 5.2 0.00 0.03 0.03 74 1028.2
20230127204523 35 68 0.9 5.2 0.00 0.03 0.03 74 1028.3
20230127203021 35 119 0.9 6.1 0.00 0.03 0.03 75 1028.2
20230127201518 35 86 0.0 2.6 0.00 0.03 0.03 75 1028.2
20230127200022 35 0 0.0 6.1 0.00 0.03 0.03 74 1028.2
20230127194522 35 69 0.9 3.5 0.00 0.03 0.03 74 1028.1
20230127193026 35 118 1.7 3.5 0.00 0.03 0.03 75 1028.1
20230127191522 35 0 0.0 3.5 0.00 0.03 0.03 76 1028.0
20230127190028 35 0 0.9 3.5 0.00 0.03 0.03 76 1027.8
20230127184531 35 68 0.0 5.2 0.00 0.03 0.03 77 1027.8
20230127183035 34 0 0.9 3.5 0.00 0.03 0.03 79 1027.7
20230127181537 34 27 0.0 2.6 0.00 0.03 0.03 79 1027.6
20230127180034 34 36 0.9 3.5 0.00 0.03 0.03 80 1027.6
20230127174521 33 360 0.0 2.6 0.00 0.03 0.03 80 1027.3
20230127173031 33 351 0.0 2.6 0.00 0.03 0.03 80 1027.5
20230127171524 34 0 0.0 2.6 0.00 0.03 0.03 78 1027.3
20230127170021 34 0 0.0 7.0 0.00 0.03 0.03 78 1027.3
20230127164523 34 0 0.9 4.3 0.00 0.03 0.03 78 1027.1
20230127163024 35 0 0.0 3.5 0.00 0.03 0.03 78 1027.0
20230127161518 35 59 0.0 3.5 0.00 0.03 0.03 78 1027.1
20230127160032 35 352 0.0 3.5 0.00 0.03 0.03 78 1026.9
20230127154522 36 0 0.0 1.7 0.00 0.03 0.03 77 1026.8
20230127153018 36 14 0.0 2.6 0.00 0.03 0.03 76 1026.8
20230127151538 37 63 0.9 5.2 0.00 0.03 0.03 74 1026.7
20230127150024 38 106 0.9 5.2 0.00 0.03 0.03 74 1026.6
20230127144524 38 57 0.9 6.1 0.00 0.03 0.03 72 1026.5
20230127143045 39 34 1.7 4.3 0.00 0.03 0.03 72 1026.5
20230127141523 39 40 1.7 6.1 0.00 0.03 0.03 72 1026.3
20230127140025 39 26 0.9 7.0 0.00 0.03 0.03 72 1026.2
20230127134520 40 21 2.6 7.8 0.00 0.03 0.03 69 1026.2
20230127133022 40 9 2.6 8.7 0.00 0.03 0.03 70 1026.1
20230127131524 40 337 1.7 5.2 0.00 0.03 0.03 73 1026.1
20230127130023 39 360 2.6 7.0 0.00 0.03 0.03 74 1026.1
20230127124520 40 41 2.6 9.6 0.00 0.03 0.03 73 1026.1
20230127123029 40 31 2.6 8.7 0.00 0.03 0.03 73 1026.2
20230127121523 41 80 2.6 6.1 0.00 0.03 0.03 73 1026.3
20230127120023 41 28 1.7 6.1 0.00 0.03 0.03 76 1026.3
20230127114525 40 336 2.6 9.6 0.00 0.03 0.03 77 1026.4
20230127113035 39 15 2.6 7.0 0.00 0.03 0.03 79 1026.4
20230127111530 39 44 1.7 7.0 0.00 0.03 0.03 80 1026.4
20230127110021 40 36 2.6 9.6 0.00 0.03 0.03 80 1026.2
20230127104523 40 87 3.5 7.0 0.00 0.03 0.03 83 1026.1
20230127103026 39 36 4.3 10.4 0.00 0.03 0.03 85 1026.0
20230127101531 38 127 1.7 8.7 0.00 0.03 0.03 88 1026.0
20230127100026 38 352 1.7 8.7 0.00 0.03 0.03 90 1026.0
20230127094518 38 80 2.6 8.7 0.00 0.03 0.03 93 1026.1
20230127093038 37 5 1.7 7.0 0.00 0.03 0.03 95 1026.0
20230127091526 36 101 1.7 7.0 0.00 0.03 0.03 96 1026.0
20230127090028 36 12 1.7 7.0 0.00 0.03 0.03 97 1025.9
20230127084521 36 74 2.6 7.0 0.00 0.03 0.03 98 1025.8
20230127083023 37 36 1.7 8.7 0.00 0.03 0.03 98 1025.6
20230127081523 37 86 2.6 10.4 0.00 0.03 0.03 98 1025.5
20230127080029 37 336 0.9 6.1 0.00 0.03 0.03 98 1025.2
20230127074526 37 22 0.9 4.3 0.00 0.03 0.03 98 1025.3
20230127073023 37 19 1.7 3.5 0.00 0.03 0.03 98 1025.1
20230127071525 37 47 1.7 4.3 0.00 0.03 0.03 98 1025.0
20230127070030 37 40 0.9 3.5 0.00 0.03 0.03 98 1024.7
20230127064525 37 38 0.9 4.3 0.00 0.03 0.03 98 1024.5
20230127063022 37 345 0.9 3.5 0.00 0.03 0.03 98 1024.4
20230127061522 37 11 0.9 6.1 0.00 0.03 0.03 98 1024.2
20230127060020 37 56 0.9 4.3 0.00 0.03 0.03 98 1023.8
20230127054524 37 75 0.9 3.5 0.00 0.03 0.03 98 1023.8
20230127053024 37 74 0.9 3.5 0.00 0.03 0.03 98 1023.6
20230127051523 37 48 1.7 5.2 0.00 0.03 0.03 98 1023.5
20230127050026 37 42 1.7 5.2 0.00 0.03 0.03 98 1023.3
20230127044519 36 0 0.0 1.7 0.00 0.03 0.03 98 1023.2
20230127043031 36 0 0.0 1.7 0.00 0.02 0.02 98 1023.1
20230127041534 36 0 0.0 1.7 0.01 0.02 0.02 98 1023.2
20230127040021 35 0 0.0 2.6 0.01 0.02 0.02 98 1023.1
20230127034529 34 0 0.0 0.9 0.01 0.02 0.02 98 1023.0
20230127033028 33 0 0.0 0.9 0.00 0.01 0.01 98 1022.7
20230127031540 33 0 0.0 0.0 0.00 0.00 0.00 97 1022.9
20230127030022 32 0 0.0 0.9 0.00 0.00 0.00 98 1022.7
20230127024519 32 0 0.0 0.0 0.00 0.00 0.00 97 1022.7
20230127023021 32 0 0.0 0.0 0.00 0.00 0.00 97 1022.6
20230127021523 32 0 0.0 0.0 0.00 0.00 0.00 97 1022.6
20230127020024 32 0 0.0 0.0 0.00 0.00 0.00 97 1022.5
20230127014524 32 0 0.0 0.0 0.00 0.00 0.00 97 1022.5
20230127013021 32 0 0.0 0.0 0.00 0.00 0.00 97 1022.5